Location: Agadir Mansour Mhndou
(31.2424°N, 8.7730°W)
Time: 20:03:32
(UTC+00:00)

Cosmos 2263 Rocket - Pass Details

Date: 16 October 2021
Orbit: 825 x 847 km, 71.0° (Epoch: 08 December)

Event Time Altitude Azimuth Distance (km) Brightness Sun altitude
Rises 19:05:11 0° 356° (N) 3,365 5.4 -14.2°
Reaches altitude 10° 19:08:14 10° 12° (NNE) 2,428 4.4 -14.9°
Maximum altitude 19:12:22 21° 61° (ENE) 1,772 3.4 -15.8°
Enters shadow 19:12:30 21° 63° (ENE) 1,773 3.4 -15.8°
